Regional Weather Roundup
Issued by NWS Grand Forks, ND

Home | Current Version | Previous Version | Graphics & Text | Print | Product List | Glossary On
Versions: 1 2 3 4 5 6 7 8 9 10 11 12 13 14 15 16 17 18 19 20 21 22 23 24 25 26 27 28 29 30 31 32 33 34 35 36 37 38 39 40 41 42 43 44 45 46 47 48 49 50
000
ASUS43 KFGF 261310
RWRFGF
PRAIRIE TO PINES  WEATHER ROUNDUP
NATIONAL WEATHER SERVICE EASTERN NORTH DAKOTA/GRAND FORKS ND
800 AM CDT THU MAR 26 2015

 **SATELLITE DATA USED TO AUGMENT SKY COVER AT AUTOMATED STATIONS**
 *****  WEATHER ACROSS EASTERN NORTH DAKOTA  *****

CITY           SKY/WX    TMP DP  RH WIND       PRES   REMARKS
GRAND FORKS    PTCLDY    22  18  85 N8        30.24R WCI  12
GRAND FRKS AFB PTCLDY    20  17  86 N9        30.24R WCI  10
DEVILS LAKE    CLEAR     21  18  86 NE6       30.22R WCI  14
FARGO          CLEAR     22  17  81 N9        30.22R WCI  12
WAHPETON ARPT  CLOUDY    25  19  80 N10       30.21R WCI  15
$$

 ***** WEATHER ACROSS CENTRAL AND WESTERN NORTH DAKOTA  *****

CITY           SKY/WX    TMP DP  RH WIND       PRES   REMARKS
BISMARCK       CLOUDY    26  24  92 CALM      30.18S
MINOT          CLOUDY    26  21  81 CALM      30.19R
JAMESTOWN      MOCLDY    20  18  92 NW5       30.20R WCI  13
MINOT AFB      CLOUDY    25  25  99 E3        30.19R
GARRISON         N/A     27  25  92 E3        30.16S
WILLISTON      CLOUDY    30  25  81 E3        30.15R
DICKINSON      LGT SNOW  27  25  92 SE7       30.08F FOG     WCI  19
HETTINGER      LGT SNOW  28  26  92 E5        30.10R FOG     WCI  23
$$

 *****  OTHER AIRPORT OBSERVATIONS IN OUR AREA  *****

CITY           SKY/WX    TMP DP  RH WIND       PRES   REMARKS
WALHALLA         N/A     18  18 100 N5        30.28R WCI  11
GRAFTON AIRPOR NOT AVBL
VALLEY CITY AR CLOUDY    25  25 100 NE6       30.21R WCI  18
CANDO          NOT AVBL
CAVALIER APRT    N/A     19  18  93 NW8       30.27R WCI   9
GWINNER        CLOUDY    27  27 100 N7          N/A  WCI  19
ROLLA          CLOUDY    19  19 100 NE7       30.22R WCI  10
 ***** THE ABOVE OBSERVATIONS ARE NON NWS ARE NOT QUALITY
       CONTROLLED AND MAY MIS-REPORT RAIN FOR SNOW...
$$

  *****  WEATHER ACROSS NORTHERN MINNESOTA  *****

CITY           SKY/WX    TMP DP  RH WIND       PRES   REMARKS
FLAG ISLAND    CLEAR     16   9  73 N12       30.20R WCI   3
WARROAD        FAIR      16  12  86 NW6       30.22R WCI   7
ROSEAU         CLEAR     18  10  73 N7        30.22R WCI   8
HALLOCK        CLEAR     19  12  73 N6        30.25R WCI  11
THF RVR FALLS  CLOUDY    21  12  68 N13       30.21R WCI   9
BAUDETTE       LGT SNOW  19  13  77 NW14      30.17R WCI   6
WASKISH        CLOUDY    19  12  73 CALM      30.16S
CROOKSTON      FLURRIES  23  19  86 N14       30.23R WCI  11
$$
  *****  WEATHER ACROSS CENTRAL AND WEST MINNESOTA  *****

CITY           SKY/WX    TMP DP  RH WIND       PRES   REMARKS
FOSSTON        FLURRIES  21  18  86 N14       30.18R WCI   8
BEMIDJI        FLURRIES  21  14  73 N9        30.14R WCI  11
PARK RAPIDS    CLOUDY    24  15  68 N15       30.11R WCI  11
ELBOW LAKE     FAIR      21  18  86 N9        30.17R WCI  11
WADENA         CLOUDY    19  16  86 W8        30.13R WCI   9
DETROIT LAKES  PTCLDY    21  19  93 NW9       30.16S WCI  11
MOORHEAD       CLEAR     21  21 100 N9        30.22R WCI  11
FERGUS FALLS   MOCLDY    21  16  79 N8        30.21R WCI  12
MORRIS MN      CLEAR     25  19  80 N10       30.17R WCI  15
STAPLES        CLOUDY    21  18  86 NW8       30.12R WCI  12
$$
  *****  WEATHER ELSEWHERE ACROSS MINNESOTA  *****

CITY           SKY/WX    TMP DP  RH WIND       PRES   REMARKS
DULUTH         FLURRIES  22  12  65 N14G24    30.04R WCI   9
INTRNTL FALLS  CLOUDY    15   5  64 N12G18    30.16R WCI   2
ELY            FLURRIES  16  10  79 NW9G16    30.06R WCI   4
CLOQUET        FLURRIES  23  12  63 NW17      30.06R WCI   9
WHEATON        MOCLDY    21  19  93 N7        30.22R WCI  13
BRAINERD       CLOUDY    26  18  71 N14       30.10R WCI  14
HIBBING        MOCLDY    18   7  62 NW18      30.09R WCI   2
ALEXANDRIA     CLEAR     22  16  78 NW10      30.15R WCI  11
SAINT CLOUD    CLOUDY    25  18  74 NW13      30.10R WCI  14
MINNEAPOLIS    CLOUDY    28  20  71 NW12      30.09R WCI  18
$$

  *****  WEATHER ACROSS SOUTH DAKOTA  *****

CITY           SKY/WX    TMP DP  RH WIND       PRES   REMARKS
SIOUX FALLS    PTCLDY    24  18  77 NW7       30.18R WCI  16
BROOKINGS      NOT AVBL
WATERTOWN      PTCLDY    27  23  85 N8        30.15S WCI  19
HURON          PTCLDY    18  14  84 W6        30.21R WCI  10
SISSETON         N/A     26  23  88 N9        30.19R WCI  17
ABERDEEN       CLOUDY    26  21  81 N6        30.20S WCI  19
MITCHELL       CLEAR     21  16  81 W7        30.22R WCI  12
PIERRE         CLOUDY    21  17  84 CALM      30.16F
MOBRIDGE       CLOUDY    26  21  81 SE3       30.13F
RAPID CITY     CLOUDY    32  25  75 CALM      30.06F
$$

  *****  SOME WEATHER IN NEARBY STATES *****

CITY           SKY/WX    TMP DP  RH WIND       PRES   REMARKS
GLASGOW MT     CLOUDY    31  29  92 E10       30.10S WCI  22
GREAT FALLS MT CLOUDY    45  32  60 SW16      30.12S
CHEYENNE WY    MOCLDY    34  17  50 W16       30.18R WCI  24
SCOTTSBLUFF NE CLOUDY    29  26  89 NW6       30.16S WCI  23
OMAHA NE       CLEAR     29  23  78 CALM      30.23R
DES MOINES IA  CLEAR     32  22  66 NW9       30.16R WCI  24
DAVENPORT IA   SUNNY     29  25  85 W10       30.07R WCI  20
CHICAGO IL     CLOUDY    32  26  78 W8        29.97R WCI  25
EAU CLAIRE WI  CLOUDY    30  18  60 NW15G21   30.01R WCI  19
LA CROSSE WI   CLOUDY    34  23  64 NW13      30.02R WCI  25
$$

  *****  SOME NATIONAL WEATHER *****

CITY           SKY/WX    TMP DP  RH WIND       PRES   REMARKS
LA GUARDIA NY  CLOUDY    45  41  86 S6        29.98F FOG
RALEIGH NC     PTSUNNY   65  62  90 SW7       29.96F
ATLANTA GA     PTSUNNY   64  57  78 SW7       30.00R
NEW ORLEANS LA CLOUDY    69  65  86 E3        29.91R
OKLAHOMA CITY  PTCLDY    42  33  73 N18       30.19R
ALBUQUERQUE NM CLEAR     38  25  59 N9        30.32R
SALT LAKE CITY PTCLDY    35  22  58 SE7       30.39S
LOS ANGELES CA CLEAR     60  48  64 E3        30.05S
BOISE ID       CLEAR     36  31  82 S5        30.41R
SEATTLE WA     MOCLDY    52  48  86 CALM      30.30S
$$

*** WEATHER ACROSS MANITOBA...SASKATCHEWAN AND ONTARIO ***
                ***ONTARIO***

CITY           SKY/WX    TMP DP  RH WIND       PRES   REMARKS
GERALDTON      LGT SNOW   7   1  78 N9        29.99R WCI  -7
THUNDER BAY    PTSUNNY   14   7  73 N10G22    30.06R WCI   1
SIOUX LOOKOUT  CLEAR      3  -2  78 N6        30.15R WCI  -8
TORONTO        CLOUDY    37  32  81 SW7       29.87R
BIG TROUT LK   PTCLDY    -2  -8  78 NW8       30.15R WCI -17
PICKLE LAKE    MOSUNNY   -4  -9  77 NW5       30.13R WCI -15
DRYDEN         CLEAR      5   1  85 N7        30.16R WCI  -7
KENORA         PTCLDY    10   7  85 N7        30.19R WCI   0
$$
                *** MANITOBA***

CITY           SKY/WX    TMP DP  RH WIND       PRES   REMARKS
BRANDON        MOCLDY    19  16  86 NE5       30.26R WCI  13
DAUPHIN        CLOUDY    10   9  92 CALM      30.28R
ISLAND LAKE    CLEAR     -8 -13  77 W6        30.30R WCI -21
PILOT MOUND      N/A     18  16  93 N3          N/A
THE PAS        PTCLDY     1   0  92 CALM      30.32S
THOMPSON       CLEAR     -8 -15  71 CALM      30.36R
WINNIPEG       PTCLDY    16  14  93 N6        30.29R WCI   7
LYNN LAKE      CLEAR    -20 -26  76 N2        30.32R
CHURCHILL      CLEAR     -8 -15  71 NW12      30.31S WCI -27
GILLAM         CLEAR     -4 -13  65 W5        30.32R WCI -15
$$
                ***SASKATCHEWAN***

CITY           SKY/WX    TMP DP  RH WIND       PRES   REMARKS
ESTEVAN        MOCLDY    23  21  93 E8        30.18R WCI  14
KINDERSLEY     MOCLDY    28  25  86 SE3       30.08R
LLOYDMINSTER   CLOUDY    18  16  93 E2        30.07S FOG
PRINCE ALBERT  PTCLDY    19  16  86 E6        30.21R WCI  11
REGINA         PTCLDY    25  23  93 E12       30.17R WCI  14
YORKTON        FOG        7   5  92 CALM      30.23R VSB 1/8
N. BATTLEFORD  MOCLDY    23  23 100 SE12      30.15R FOG     WCI  12
LA RONGE       PTCLDY    10   7  85 NE7       30.24S WCI   0
SASKATOON      MOCLDY    27  25  93 SE8       30.16R WCI  18
SWIFT CURRENT  MOCLDY    25  25 100 SE3       30.07R
$$
NOTE: THESE ARE AUTOMATED STATIONS WITH LIMITED QUALITY CONTROL
      "FAIR" INDICATES FEW OR NO CLOUDS BELOW 12,000 FEET WITH NO
      SIGNIFICANT WEATHER AND/OR OBSTRUCTIONS TO VISIBILITY.
      SKY/WX - SKY CONDITION AND SIGNIFICANT WEATHER.
      TMP - AIR TEMPERATURE.    DP   - DEWPOINT TEMPERATURE.
      RH  - RELATIVE HUMIDITY.  PRES - PRESSURE.
      HX  - HEAT INDEX.         WCI  - WIND CHILL INDEX.
$



USA.gov is the U.S. government's official web portal to all federal, state and local government web resources and services.